Scottsdale, AZ

9:55 AM MST on April 23, 2017 (GMT -0700)
Scottsdale

Weather History for KSDL - January, 2014

Change the Weather History Date:

Saturday, January 18, 2014

  Actual Average Record
Temperature  
Mean Temperature 58 °F -  
Max Temperature 73 °F 64 °F 78 °F (2000)
Min Temperature 44 °F 43 °F 32 °F (2008)
Degree Days  
Heating Degree Days 6    
Growing Degree Days 8 (Base 50)    
Moisture  
Dew Point 26 °F    
Average Humidity 32    
Maximum Humidity 53    
Minimum Humidity 14    
Precipitation  
Precipitation 0.00 in - - ()
Sea Level Pressure  
Sea Level Pressure 30.07 in    
Wind  
Wind Speed 0 mph (West)    
Max Wind Speed 5 mph    
Max Gust Speed -    
Visibility 10 miles    
Events      
Averages and records for this station are not official NWS values.
T = Trace of Precipitation, MM = Missing Value Source: NWS Daily Summary

Daily Weather History Graph

Daily Weather History Graph

Search for Another Location

Airport or City:

Trip Planner

Search our weather history database for the weather conditions in past years. The results will help you decide how hot, cold, wet, or windy it might be!

Date:

Astronomy

Jan. 18, 2014 Rise Set
Actual Time 7:31 AM MST 5:45 PM MST
Civil Twilight 7:04 AM MST 6:12 PM MST
Nautical Twilight 6:33 AM MST 6:42 PM MST
Astronomical Twilight 6:04 AM MST 7:12 PM MST
Moon 8:20 PM MST (1/18) 8:41 AM MST (1/18)
Length of Visible Light 11h 07m
Length of Day
10h 14m
Waning Gibbous, 94% of the Moon is Illuminated
Jan 18
Waning Gibbous
Jan 23
Last Quarter
Jan 30
New
Feb 6
First Quarter
Feb 14
Full

Hourly Weather History & Observations

Time (MST) Temp. Dew Point Humidity Pressure Visibility Wind Dir Wind Speed Gust Speed Precip Events Conditions
12:53 AM 50.0 °F 28.0 °F 43% 30.05 in 10.0 mi Calm Calm - N/A   Clear
1:53 AM 48.0 °F 28.0 °F 46% 30.05 in 10.0 mi Calm Calm - N/A   Clear
2:53 AM 48.9 °F 26.1 °F 41% 30.05 in 10.0 mi Calm Calm - N/A   Clear
3:53 AM 46.9 °F 28.0 °F 48% 30.05 in 10.0 mi Calm Calm - N/A   Clear
4:53 AM 45.0 °F 27.0 °F 49% 30.05 in 10.0 mi Calm Calm - N/A   Clear
5:53 AM 48.0 °F 25.0 °F 41% 30.06 in 10.0 mi Calm Calm - N/A   Clear
6:53 AM 44.1 °F 27.0 °F 51% 30.08 in 10.0 mi Calm Calm - N/A   Clear
7:53 AM 44.1 °F 28.0 °F 53% 30.09 in 10.0 mi Calm Calm - N/A   Clear
8:53 AM 51.1 °F 28.0 °F 41% 30.11 in 10.0 mi Calm Calm - N/A   Clear
9:53 AM 57.0 °F 28.0 °F 33% 30.12 in 10.0 mi Calm Calm - N/A   Clear
10:53 AM 62.1 °F 23.0 °F 22% 30.13 in 10.0 mi Calm Calm - N/A   Clear
11:53 AM 66.0 °F 26.1 °F 22% 30.11 in 10.0 mi Calm Calm - N/A   Clear
12:53 PM 70.0 °F 24.1 °F 18% 30.08 in 10.0 mi SSW 3.5 mph - N/A   Clear
1:53 PM 71.1 °F 21.0 °F 15% 30.05 in 10.0 mi Calm Calm - N/A   Clear
2:53 PM 73.9 °F 21.9 °F 14% 30.03 in 10.0 mi West 4.6 mph - N/A   Clear
3:53 PM 73.9 °F 21.0 °F 14% 30.03 in 10.0 mi West 3.5 mph - N/A   Clear
4:53 PM 73.0 °F 21.0 °F 14% 30.03 in 10.0 mi NW 3.5 mph - N/A   Clear
5:53 PM 70.0 °F 24.1 °F 18% 30.03 in 10.0 mi WNW 3.5 mph - N/A   Clear
6:53 PM 64.9 °F 25.0 °F 22% 30.05 in 10.0 mi Calm Calm - N/A   Clear
7:53 PM 60.1 °F 26.1 °F 27% 30.06 in 10.0 mi Calm Calm - N/A   Clear
8:53 PM 57.9 °F 26.1 °F 30% 30.08 in 10.0 mi Calm Calm - N/A   Clear
9:53 PM 55.0 °F 26.1 °F 33% 30.09 in 10.0 mi Calm Calm - N/A   Clear
10:53 PM 52.0 °F 27.0 °F 38% 30.09 in 10.0 mi Calm Calm - N/A   Clear
11:53 PM 50.0 °F 28.0 °F 43% 30.08 in 10.0 mi Calm Calm - N/A   Clear